Louisville Bowman, KY

6:49 AM EDT on October 21, 2017 (GMT -0400)
Bowman

Weather History for KLOU - August, 2013

Change the Weather History Date:

Saturday, August 3, 2013

  Actual Average Record
Temperature  
Mean Temperature 79 °F 78 °F  
Max Temperature 87 °F 87 °F 101 °F (1964)
Min Temperature 71 °F 69 °F 52 °F (1965)
Degree Days  
Heating Degree Days 0 0  
Month to date heating degree days 0 0  
Since 1 June heating degree days 0 3  
Since 1 July heating degree days 0 0  
Cooling Degree Days 14 13  
Month to date cooling degree days 33 39  
Year to date cooling degree days 861 889  
Since 1 June cooling degree days 675 742  
Growing Degree Days 29 (Base 50)    
Moisture  
Dew Point 67 °F    
Average Humidity 68    
Maximum Humidity 79    
Minimum Humidity 57    
Precipitation  
Precipitation T in 0.14 in 1.24 in (1987)
Month to date precipitation T 0.41  
Year to date precipitation 33.38 28.64  
Sea Level Pressure  
Sea Level Pressure 29.98 in    
Wind  
Wind Speed 4 mph (WNW)    
Max Wind Speed 17 mph    
Max Gust Speed 24 mph    
Visibility 10 miles    
Events      
T = Trace of Precipitation, MM = Missing Value Source: NWS Daily Summary

Daily Weather History Graph

Daily Weather History Graph

Search for Another Location

Airport or City:

Trip Planner

Search our weather history database for the weather conditions in past years. The results will help you decide how hot, cold, wet, or windy it might be!

Date:

Astronomy

Aug. 03, 2013 Rise Set
Actual Time 6:47 AM EDT 8:49 PM EDT
Civil Twilight 6:17 AM EDT 9:19 PM EDT
Nautical Twilight 5:42 AM EDT 9:54 PM EDT
Astronomical Twilight 5:03 AM EDT 10:32 PM EDT
Moon 3:56 AM EDT (8/3) 6:31 PM EDT (8/3)
Length of Visible Light 15h 01m
Length of Day
14h 02m
Waning Crescent, 9% of the Moon is Illuminated
Aug 3
Waning Crescent
Aug 6
New
Aug 14
First Quarter
Aug 20
Full
Aug 28
Last Quarter

Hourly Weather History & Observations

Time (EDT) Temp. Heat Index Dew Point Humidity Pressure Visibility Wind Dir Wind Speed Gust Speed Precip Events Conditions
12:53 AM 75.9 °F - 63.0 °F 64% 29.99 in 10.0 mi Calm Calm - N/A   Overcast
1:53 AM 75.0 °F - 64.0 °F 69% 29.98 in 10.0 mi Calm Calm - N/A   Overcast
2:53 AM 75.0 °F - 64.0 °F 69% 29.96 in 10.0 mi Calm Calm - N/A   Overcast
3:53 AM 73.9 °F - 64.0 °F 71% 29.96 in 10.0 mi Calm Calm - N/A   Mostly Cloudy
4:53 AM 72.0 °F - 64.9 °F 78% 29.98 in 10.0 mi South 3.5 mph - N/A   Mostly Cloudy
5:53 AM 72.0 °F - 64.0 °F 76% 29.97 in 10.0 mi Calm Calm - N/A   Overcast
6:53 AM 72.0 °F - 64.9 °F 78% 29.97 in 10.0 mi SSE 3.5 mph - N/A   Overcast
7:53 AM 73.0 °F - 64.9 °F 76% 29.98 in 10.0 mi South 3.5 mph - N/A   Mostly Cloudy
8:53 AM 73.9 °F - 64.9 °F 73% 29.99 in 10.0 mi Calm Calm - N/A   Overcast
9:53 AM 75.0 °F - 64.9 °F 71% 30.00 in 10.0 mi Calm Calm - N/A   Overcast
10:53 AM 77.0 °F - 66.9 °F 71% 29.99 in 10.0 mi South 3.5 mph - 0.00 in   Overcast
11:53 AM 80.1 °F 82.1 °F 66.0 °F 62% 29.99 in 10.0 mi Variable 5.8 mph - N/A   Mostly Cloudy
12:53 PM 81.0 °F 83.8 °F 68.0 °F 65% 30.00 in 10.0 mi WSW 8.1 mph - N/A   Scattered Clouds
1:53 PM 82.9 °F 85.4 °F 66.9 °F 58% 29.99 in 10.0 mi West 9.2 mph - N/A   Mostly Cloudy
2:53 PM 82.9 °F 86.5 °F 69.1 °F 63% 29.98 in 10.0 mi WSW 10.4 mph - N/A   Mostly Cloudy
3:53 PM 84.0 °F 87.8 °F 69.1 °F 61% 29.97 in 10.0 mi NW 8.1 mph - N/A   Mostly Cloudy
4:53 PM 86.0 °F 90.7 °F 70.0 °F 59% 29.96 in 10.0 mi Variable 6.9 mph - 0.00 in   Partly Cloudy
5:53 PM 86.0 °F 90.7 °F 70.0 °F 59% 29.96 in 10.0 mi NW 6.9 mph - N/A   Partly Cloudy
6:53 PM 82.0 °F 85.9 °F 70.0 °F 67% 29.96 in 10.0 mi North 12.7 mph 19.6 mph N/A   Scattered Clouds
7:53 PM 81.0 °F 84.4 °F 70.0 °F 69% 29.97 in 10.0 mi NNE 5.8 mph - N/A   Clear
8:53 PM 79.0 °F - 69.1 °F 72% 29.99 in 10.0 mi North 5.8 mph - N/A   Clear
9:53 PM 77.0 °F - 68.0 °F 74% 30.01 in 10.0 mi North 4.6 mph - N/A   Clear
10:53 PM 75.9 °F - 66.9 °F 74% 30.03 in 10.0 mi Calm Calm - N/A   Clear
11:53 PM 73.9 °F - 66.9 °F 79% 30.04 in 10.0 mi Calm Calm - N/A   Clear